Quinhagak|Kwinhagak Airport, AK

3:37 PM AKST on December 15, 2019 (GMT -0900)
Quinhagak

Weather History for PAQH - November, 2019

Change the Weather History Date:

Sunday, November 17, 2019

  Actual Average (WUND) Record (WUND)
Temperature  
Mean Temperature 8 °F -  
Max Temperature 10 °F - - (-1)
Min Temperature 5 °F - - (-1)
Degree Days  
Heating Degree Days 57    
Moisture  
Dew Point 6 °F    
Average Humidity 86    
Maximum Humidity 92    
Minimum Humidity 79    
Precipitation  
Precipitation 0.00 in - - ()
Sea Level Pressure  
Sea Level Pressure 29.57 in    
Wind  
Wind Speed 7 mph ()    
Max Wind Speed 10 mph    
Max Gust Speed -    
Visibility 7.9 miles    
Events Snow    
Averages and records for this station are not official NWS values.
T = Trace of Precipitation, MM = Missing Value Source: Averaged Metar Reports

Daily Weather History Graph

Daily Weather History Graph

Search for Another Location

Airport or City:

Astronomy

Nov. 17, 2019 Rise Set
Actual Time 9:48 AM AKST 5:15 PM AKST
Civil Twilight 8:59 AM AKST 6:04 PM AKST
Nautical Twilight 8:07 AM AKST 6:55 PM AKST
Astronomical Twilight 7:19 AM AKST 7:44 PM AKST
Moon 9:45 PM AKST (11/17) 3:07 PM AKST (11/17)
Length of Visible Light 9h 04m
Length of Day
7h 26m
Waning Gibbous, 72% of the Moon is Illuminated
Nov 17
Waning Gibbous
Nov 19
Last Quarter
Nov 26
New
Dec 3
First Quarter
Dec 11
Full

Hourly Weather History & Observations

Time (AKST) Temp. Windchill Dew Point Humidity Pressure Visibility Wind Dir Wind Speed Gust Speed Precip Events Conditions
12:56 AM 10.0 °F -1.9 °F 7.0 °F 87% 29.43 in 9.0 mi NW 8.1 mph - 0.00 in Snow Light Snow
1:06 AM 10.4 °F -2.4 °F 6.8 °F 85% 29.43 in 9.0 mi NW 9.2 mph - 0.00 in Snow Light Snow
1:46 AM 10.4 °F -2.4 °F 6.8 °F 85% 29.44 in 9.0 mi NW 9.2 mph - 0.00 in Snow Light Snow
2:14 AM 10.4 °F -2.4 °F 6.8 °F 85% 29.45 in 9.0 mi NNW 9.2 mph - 0.00 in Snow Light Snow
2:56 AM 10.0 °F -2.9 °F 7.0 °F 87% 29.45 in 9.0 mi North 9.2 mph - 0.00 in Snow Light Snow
4:56 AM 10.0 °F -0.9 °F 6.1 °F 84% 29.47 in 9.0 mi North 6.9 mph - 0.00 in Snow Light Snow
5:56 AM 10.0 °F -0.9 °F 7.0 °F 87% 29.48 in 9.0 mi North 6.9 mph - 0.00 in Snow Light Snow
6:56 AM 10.0 °F -0.9 °F 7.0 °F 87% 29.49 in 9.0 mi NNE 6.9 mph - 0.00 in Snow Light Snow
7:56 AM 9.0 °F -0.9 °F 7.0 °F 92% 29.50 in 6.0 mi NNE 5.8 mph - 0.00 in Snow Light Snow
8:56 AM 9.0 °F -0.9 °F 7.0 °F 92% 29.52 in 7.0 mi NNE 5.8 mph - 0.00 in Snow Light Snow
9:56 AM 9.0 °F 0.6 °F 7.0 °F 92% 29.54 in 9.0 mi NNE 4.6 mph - 0.00 in Snow Light Snow
10:56 AM 10.0 °F 1.8 °F 7.0 °F 87% 29.56 in 9.0 mi NE 4.6 mph - 0.00 in Snow Light Snow
11:56 AM 10.0 °F 1.8 °F 7.0 °F 87% 29.57 in 9.0 mi NE 4.6 mph - 0.00 in Snow Light Snow
12:56 PM 10.9 °F 0.2 °F 7.0 °F 84% 29.59 in 4.0 mi NE 6.9 mph - 0.00 in Snow Light Snow
1:56 PM 10.9 °F 1.4 °F 8.1 °F 88% 29.60 in 6.0 mi NE 5.8 mph - 0.00 in Snow Light Snow
2:56 PM 10.9 °F 1.4 °F 8.1 °F 88% 29.61 in 9.0 mi ENE 5.8 mph - 0.00 in Snow Light Snow
3:56 PM 10.9 °F -0.8 °F 7.0 °F 84% 29.63 in 2.5 mi NNE 8.1 mph - 0.00 in Snow Light Snow
4:04 PM 10.4 °F -1.5 °F 8.6 °F 92% 29.63 in 1.8 mi NNE 8.1 mph - 0.00 in Snow Light Snow
4:07 PM 10.4 °F -0.4 °F 8.6 °F 92% 29.63 in 4.0 mi NNE 6.9 mph - 0.00 in Snow Light Snow
4:56 PM 10.9 °F 0.2 °F 7.0 °F 84% 29.64 in 9.0 mi North 6.9 mph - 0.00 in Snow Light Snow
5:56 PM 10.9 °F 1.4 °F 6.1 °F 81% 29.65 in 9.0 mi NNE 5.8 mph - 0.00 in Snow Light Snow
6:56 PM 10.0 °F -0.9 °F 6.1 °F 84% 29.67 in 9.0 mi NNE 6.9 mph - 0.00 in Snow Light Snow
7:56 PM 10.0 °F 0.4 °F 6.1 °F 84% 29.69 in 9.0 mi North 5.8 mph - 0.00 in Snow Light Snow
8:56 PM 10.0 °F -2.9 °F 5.0 °F 80% 29.69 in 9.0 mi North 9.2 mph - 0.00 in Snow Light Snow
10:56 PM 9.0 °F -2.2 °F 3.9 °F 80% 29.71 in 10.0 mi NNE 6.9 mph - 0.00 in   Overcast
11:37 PM 6.8 °F -6.9 °F 1.4 °F 79% 29.70 in 10.0 mi North 9.2 mph - 0.00 in   Scattered Clouds
11:56 PM 5.0 °F -10.0 °F 1.0 °F 84% 29.70 in 10.0 mi North 10.4 mph - 0.00 in   Clear